GW6780 Weather Reports


time (UTC)temp
F
wind
direction
speed
knots
gust
knots
rain 1hr
in
rain 24hr
in
rain mn
in
humidity
%
barometer
mb
20260503222802 57 290 0.0 0.9 0.00 0.00 0.00 70 1010.8
20260503221803 57 290 0.0 0.9 0.00 0.00 0.00 70 1010.6
20260503221304 57 290 0.0 0.0 0.00 0.00 0.00 69 1010.7
20260503220804 57 290 0.0 0.0 0.00 0.00 0.00 69 1010.7
20260503220303 57 290 0.0 0.0 0.00 0.00 0.00 69 1010.6
20260503215304 58 290 0.0 0.0 0.00 0.00 0.00 67 1010.6
20260503214803 58 290 0.0 0.0 0.00 0.00 0.00 67 1010.5
20260503213804 58 290 0.0 0.0 0.00 0.00 0.00 66 1010.4
20260503213304 58 290 0.0 0.0 0.00 0.00 0.00 66 1010.4
20260503212305 59 290 0.9 1.7 0.00 0.00 0.00 63 1010.1
20260503211804 59 290 0.0 1.7 0.00 0.00 0.00 63 1010.0
20260503211303 59 290 0.0 1.7 0.00 0.00 0.00 63 1010.0
20260503210303 60 290 0.0 1.7 0.00 0.00 0.00 60 1009.9
20260503205304 60 290 1.7 2.6 0.00 0.00 0.00 59 1009.8
20260503204303 61 229 0.0 1.7 0.00 0.00 0.00 58 1009.7
20260503203803 61 229 0.9 3.5 0.00 0.00 0.00 58 1009.8
20260503202739 62 275 1.7 7.0 0.00 0.00 0.00 54 1009.8
20260503200730 62 297 3.5 8.7 0.00 0.00 0.00 55 1009.8
20260503200231 62 262 4.3 8.7 0.00 0.00 0.00 55 1009.7
20260503195731 62 292 2.6 8.7 0.00 0.00 0.00 55 1009.6
20260503195232 63 149 0.9 4.3 0.00 0.00 0.00 55 1009.4
20260503194730 63 159 0.9 3.5 0.00 0.00 0.00 54 1009.4
20260503193730 64 163 1.7 3.5 0.00 0.00 0.00 51 1009.3
20260503192730 64 172 0.9 2.6 0.00 0.00 0.00 53 1009.4
20260503192231 64 132 0.0 1.7 0.00 0.00 0.00 52 1009.4
20260503191730 64 132 0.0 1.7 0.00 0.00 0.00 52 1009.4
20260503191231 64 131 0.0 1.7 0.00 0.00 0.00 52 1009.4
20260503190729 64 131 0.0 1.7 0.00 0.00 0.00 52 1009.4
20260503190231 65 131 0.9 1.7 0.00 0.00 0.00 52 1009.4
20260503185730 65 132 0.9 1.7 0.00 0.00 0.00 51 1009.3
20260503184730 66 132 0.9 2.6 0.00 0.00 0.00 49 1009.4
20260503184230 66 123 0.9 2.6 0.00 0.00 0.00 48 1009.4
20260503183730 67 124 0.9 2.6 0.00 0.00 0.00 48 1009.4
20260503183231 67 124 1.7 3.5 0.00 0.00 0.00 47 1009.4
20260503182730 67 121 1.7 3.5 0.00 0.00 0.00 46 1009.3
20260503182229 68 129 2.6 3.5 0.00 0.00 0.00 46 1009.3
20260503181230 69 135 1.7 4.3 0.00 0.00 0.00 44 1009.3
20260503180731 69 103 1.7 4.3 0.00 0.00 0.00 44 1009.2
20260503180231 70 132 1.7 6.1 0.00 0.00 0.00 43 1009.2
20260503175731 70 123 1.7 6.1 0.00 0.00 0.00 42 1009.2
20260503175230 71 157 2.6 6.1 0.00 0.00 0.00 41 1009.2
20260503174730 71 133 2.6 6.1 0.00 0.00 0.00 41 1009.2
20260503172730 72 151 2.6 8.7 0.00 0.00 0.00 40 1009.4
20260503171730 72 148 2.6 6.1 0.00 0.00 0.00 40 1009.4
20260503170230 73 183 3.5 8.7 0.00 0.00 0.00 37 1009.3
20260503150730 77 153 5.2 10.4 0.00 0.00 0.00 31 1010.0
20260503150230 76 147 5.2 10.4 0.00 0.00 0.00 30 1010.0
20260503140203 77 110 4.3 12.2 0.00 0.00 0.00 29 1010.6
20260503130702 78 143 6.1 13.9 0.00 0.00 0.00 29 1011.3
20260503130202 78 108 6.1 13.9 0.00 0.00 0.00 30 1011.4
20260503090202 76 225 1.7 5.2 0.00 0.00 0.00 34 1013.2
20260503081202 74 87 2.6 7.0 0.00 0.00 0.00 37 1013.4
20260503072702 70 100 3.5 8.7 0.00 0.00 0.00 41 1013.3
20260503072201 70 109 3.5 7.8 0.00 0.00 0.00 41 1013.4
20260503071701 69 141 3.5 6.1 0.00 0.00 0.00 42 1013.3
20260503071202 69 134 2.6 7.0 0.00 0.00 0.00 42 1013.3
20260503070202 68 149 3.5 7.0 0.00 0.00 0.00 43 1013.3
20260503060203 61 89 1.7 7.0 0.00 0.00 0.00 50 1013.5
20260503053702 58 163 1.7 4.3 0.00 0.00 0.00 53 1013.4
20260503052702 58 140 0.9 4.3 0.00 0.00 0.00 53 1013.4
20260503051701 57 167 0.0 1.7 0.00 0.00 0.00 53 1013.4
20260503051202 57 167 0.9 3.5 0.00 0.00 0.00 54 1013.5
20260503050202 56 169 0.9 3.5 0.00 0.00 0.00 54 1013.5
20260503045701 56 125 0.9 3.5 0.00 0.00 0.00 54 1013.5
20260503045202 56 106 0.9 6.1 0.00 0.00 0.00 55 1013.5
20260503044701 55 163 2.6 6.1 0.00 0.00 0.00 55 1013.5
20260503044203 55 162 3.5 6.1 0.00 0.00 0.00 56 1013.6
20260503043703 54 124 2.6 6.1 0.00 0.00 0.00 58 1013.6
20260503043204 53 94 2.6 5.2 0.00 0.00 0.00 58 1013.5
20260503042702 53 108 2.6 5.2 0.00 0.00 0.00 57 1013.6
20260503042203 53 101 2.6 5.2 0.00 0.00 0.00 57 1013.5
20260503041703 53 67 2.6 4.3 0.00 0.00 0.00 57 1013.6
20260503041204 53 101 2.6 6.1 0.00 0.00 0.00 57 1013.5
20260503040204 53 92 3.5 6.1 0.00 0.00 0.00 56 1013.5
20260503035702 54 84 3.5 7.0 0.00 0.00 0.00 55 1013.6
20260503035203 54 90 3.5 7.0 0.00 0.00 0.00 54 1013.5
20260503034203 55 80 4.3 7.0 0.00 0.00 0.00 53 1013.5
20260503033702 55 108 3.5 7.0 0.00 0.00 0.00 52 1013.5
20260503033203 55 114 2.6 5.2 0.00 0.00 0.00 53 1013.4
20260503032703 55 148 2.6 5.2 0.00 0.00 0.00 53 1013.5
20260503032203 54 147 2.6 5.2 0.00 0.00 0.00 54 1013.4
20260503031702 54 110 2.6 6.1 0.00 0.00 0.00 54 1013.4
20260503030702 54 114 2.6 6.1 0.00 0.00 0.00 56 1013.3
20260503025701 53 154 1.7 5.2 0.00 0.00 0.00 57 1013.4
20260503025202 53 107 1.7 5.2 0.00 0.00 0.00 58 1013.5
20260503024701 53 155 1.7 5.2 0.00 0.00 0.00 58 1013.5
20260503024204 52 171 0.9 4.3 0.00 0.00 0.00 59 1013.6
20260503023702 52 127 0.9 4.3 0.00 0.00 0.00 61 1013.6
20260503023204 51 173 1.7 4.3 0.00 0.00 0.00 64 1013.6
20260503022704 50 161 0.9 6.1 0.00 0.00 0.00 66 1013.6
20260503022203 51 153 1.7 6.1 0.00 0.00 0.00 64 1013.6
20260503021702 51 155 2.6 6.1 0.00 0.00 0.00 63 1013.7
20260503021203 51 146 2.6 6.1 0.00 0.00 0.00 63 1013.9
20260503020702 50 128 1.7 5.2 0.00 0.00 0.00 65 1013.9
20260503020204 50 102 1.7 3.5 0.00 0.00 0.00 64 1013.9
20260503015203 51 86 1.7 5.2 0.00 0.00 0.00 62 1013.9
20260503014702 51 85 1.7 4.3 0.00 0.00 0.00 63 1013.9
20260503014203 51 85 1.7 3.5 0.00 0.00 0.00 65 1013.9
20260503013204 50 80 1.7 3.5 0.00 0.00 0.00 66 1014.0
20260503012702 50 84 1.7 3.5 0.00 0.00 0.00 67 1014.0
20260503012203 50 66 1.7 3.5 0.00 0.00 0.00 65 1014.1
20260503010702 50 80 1.7 3.5 0.00 0.00 0.00 66 1014.2
20260503010203 50 71 1.7 3.5 0.00 0.00 0.00 66 1014.2
20260503005703 50 61 1.7 3.5 0.00 0.00 0.00 66 1014.3
20260503005203 50 63 1.7 2.6 0.00 0.00 0.00 68 1014.2
20260503004703 50 65 1.7 2.6 0.00 0.00 0.00 68 1014.1
20260503003203 50 67 0.9 2.6 0.00 0.00 0.00 67 1014.2
20260503002703 50 67 0.9 2.6 0.00 0.00 0.00 67 1014.3
20260503001702 50 67 0.9 2.6 0.00 0.00 0.00 67 1014.3
20260503000702 50 68 0.9 2.6 0.00 0.00 0.00 67 1014.4
20260503000204 51 69 0.9 2.6 0.00 0.00 0.00 65 1014.4
20260502235702 51 71 1.7 2.6 0.00 0.00 0.00 65 1014.4
20260502235203 52 75 1.7 2.6 0.00 0.00 0.00 63 1014.4
20260502234702 52 96 1.7 2.6 0.00 0.00 0.00 63 1014.4
20260502233701 52 108 0.9 2.6 0.00 0.00 0.00 64 1014.5
20260502233203 52 111 0.9 4.3 0.00 0.00 0.00 64 1014.5
20260502232203 52 150 0.9 3.5 0.00 0.00 0.00 63 1014.7
20260502231703 53 153 0.9 2.6 0.00 0.00 0.00 62 1014.7
20260502231202 53 125 0.9 2.6 0.00 0.00 0.00 63 1014.7
20260502230703 53 128 0.9 2.6 0.00 0.00 0.00 62 1014.8
20260502230216 53 128 0.9 1.7 0.00 0.00 0.00 62 1014.8
20260502225702 53 128 0.9 2.6 0.00 0.00 0.00 62 1014.9
20260502225203 53 126 0.9 3.5 0.00 0.00 0.00 62 1014.9
20260502224702 53 125 1.7 3.5 0.00 0.00 0.00 63 1015.0
20260502223702 53 98 1.7 2.6 0.00 0.00 0.00 64 1015.0